GFSSE_850_thetae_201.txt.gz
Theta_e
345 344 344 345 345 345 345 343 338 334 337 338 339 337 339 338 339 339 338 337 336 336 338 337 337 336 332 332 335 336 336 337 337 338 338 337 332 334 337 340 336 336 332
344 343 340 343 342 343 342 340 335 334 337 336 335 334 334 340 340 338 334 333 336 336 335 334 333 332 334 337 335 333 334 337 338 337 336 337 335 340 344 344 339 337 335
337 338 338 335 333 333 335 334 332 333 342 334 331 339 339 334 337 340 337 332 330 331 332 337 339 338 335 336 336 335 335 338 341 343 343 338 340 340 341 345 341 339 339
337 335 333 333 335 327 329 331 330 335 339 336 340 337 326 329 336 328 330 327 328 330 336 340 338 339 338 338 336 339 339 339 342 343 338 339 338 333 338 340 337 337 338
342 334 331 334 333 326 328 341 338 332 331 329 327 327 329 334 330 329 328 328 329 334 338 336 335 339 340 339 339 341 342 342 343 342 336 336 342 332 336 332 330 332 335
345 335 336 341 337 327 332 341 339 334 335 328 327 336 339 333 332 331 333 335 334 330 330 333 336 339 340 341 342 342 342 342 341 337 341 343 340 331 325 330 341 333 329
345 333 336 338 324 331 327 330 327 324 324 326 337 336 332 330 331 331 331 331 332 335 337 338 338 337 337 338 339 343 340 341 341 335 335 342 339 334 326 326 326 328 329
342 336 337 333 330 332 325 336 334 335 329 331 331 328 328 331 331 334 336 336 332 330 330 331 332 333 334 336 339 341 342 342 340 338 336 339 341 339 334 330 325 325 328
344 334 335 325 334 331 327 331 335 328 327 328 330 342 345 346 347 346 343 343 342 342 341 341 340 339 338 337 339 341 344 341 335 340 339 334 337 341 340 340 336 332 326
342 339 323 330 336 331 332 326 328 333 334 345 345 349 350 349 342 343 346 346 343 346 344 341 343 345 342 339 339 344 331 333 339 338 338 335 339 341 338 339 341 337 337
344 341 339 348 345 332 328 336 345 347 349 350 348 349 340 344 341 344 348 347 347 347 342 342 347 344 342 337 344 341 335 337 341 339 340 338 338 339 339 341 343 343 340
347 347 343 347 346 331 338 347 346 344 345 345 347 346 343 342 344 348 346 348 348 347 345 346 343 342 343 344 344 342 343 343 344 340 340 340 342 341 341 342 343 341 342
345 349 346 336 348 342 345 348 349 345 347 343 344 347 345 346 348 346 347 347 349 347 346 345 348 346 346 345 343 346 338 344 344 343 341 338 340 342 343 341 339 337 336
348 349 343 341 346 347 344 350 348 347 347 349 347 349 348 346 349 349 348 344 349 348 349 343 346 346 347 347 346 345 346 344 345 347 346 343 340 339 340 341 342 342 342
348 348 342 342 343 343 347 350 348 349 348 342 342 345 345 344 348 347 348 347 344 344 345 346 345 344 344 346 347 341 344 345 345 344 346 346 345 343 342 342 340 340 340
347 348 346 342 345 342 350 347 347 348 348 347 341 346 346 337 348 348 347 351 351 351 348 349 347 344 347 346 343 342 341 346 346 345 346 346 346 345 344 344 343 340 338
346 345 346 345 343 345 348 347 348 351 350 349 348 341 346 349 348 349 346 350 350 350 350 349 352 349 350 349 346 346 343 345 346 345 345 347 346 344 341 338 337 334 330
347 345 344 332 343 348 344 347 350 348 350 352 348 344 344 344 349 349 348 350 352 353 348 343 348 348 347 347 344 347 345 344 344 346 344 345 344 339 337 334 331 329 327
348 345 342 342 347 342 347 351 350 346 348 352 350 348 341 344 349 350 349 347 350 350 351 341 347 350 347 341 344 342 341 345 347 342 343 347 339 335 332 330 330 331 327
347 346 343 349 349 344 347 351 348 348 348 351 349 348 340 342 350 349 353 355 350 354 350 346 346 348 346 345 336 341 343 338 341 341 344 341 336 335 332 329 327 328 330
346 344 347 352 350 345 346 341 343 343 346 347 348 347 340 335 342 344 352 354 349 350 349 350 347 346 346 341 333 337 338 334 336 334 333 338 336 331 327 328 327 327 330
348 347 351 353 350 349 342 345 349 348 350 349 348 348 338 336 336 338 345 346 350 353 351 349 344 340 342 337 335 326 330 333 332 330 332 332 326 325 326 326 326 329 327
346 348 349 352 351 349 342 350 352 350 351 349 348 344 343 339 342 343 344 340 341 354 353 348 345 336 338 337 335 332 328 327 327 326 326 325 327 326 326 325 327 326 328
347 349 347 349 348 349 347 351 350 351 350 345 344 346 348 343 350 348 351 348 345 352 350 348 345 335 328 329 326 331 330 328 330 327 320 325 326 326 326 325 326 326 327
346 347 347 345 347 346 346 349 349 350 349 347 346 348 347 346 351 351 351 351 346 348 352 349 346 338 324 317 321 324 325 326 325 322 324 322 322 325 327 326 326 326 323
348 347 347 348 344 343 348 350 349 346 346 350 347 346 347 350 351 353 352 353 350 351 354 349 347 335 325 315 315 324 321 320 321 323 323 323 321 325 327 326 325 324 325

GFSSE_850_thetae_207.txt.gz
Theta_e
344 340 339 342 343 340 336 335 337 337 337 336 337 336 338 340 341 340 340 340 339 338 340 338 334 332 335 336 336 337 337 337 338 338 340 335 330 333 332 334 332 330 330
344 344 343 344 343 340 335 335 337 337 333 332 342 335 339 336 335 336 336 339 340 339 337 332 331 333 332 334 335 335 336 337 335 336 337 332 335 338 338 337 335 334 333
342 344 343 343 341 336 333 334 335 330 329 335 335 335 337 336 332 329 334 334 332 334 334 332 337 336 337 336 333 333 335 338 339 339 336 335 336 339 342 345 341 339 336
340 342 342 342 337 334 332 337 337 330 337 330 326 330 331 340 327 326 328 330 336 339 338 337 335 336 336 337 333 330 337 339 341 339 336 336 336 337 340 341 342 337 340
336 332 330 328 328 328 331 334 336 332 328 328 331 328 327 327 327 326 330 333 338 336 335 338 338 337 336 339 340 340 337 339 339 339 338 336 336 331 335 340 339 338 339
332 331 330 325 328 337 332 331 331 325 331 336 334 333 332 332 333 334 333 329 332 332 334 339 341 340 341 341 342 341 339 340 339 333 335 335 337 335 327 330 329 332 333
330 335 335 324 330 336 332 328 326 333 336 333 331 330 330 330 330 331 331 333 335 336 337 337 337 335 337 341 339 339 340 340 338 337 336 333 340 335 326 329 334 334 331
330 338 328 325 329 328 324 324 328 332 332 329 329 333 337 339 341 341 340 337 333 331 331 331 332 334 337 339 340 335 334 338 337 335 335 336 340 336 330 326 333 328 327
332 334 324 328 325 333 331 328 328 328 334 342 345 346 346 345 344 342 342 343 342 341 341 340 339 336 336 339 335 335 337 338 336 333 335 337 340 338 337 335 331 326 326
335 331 328 325 330 332 327 327 329 343 341 344 336 346 346 340 345 343 343 345 343 341 344 343 341 341 338 340 334 337 338 337 336 336 335 337 341 341 339 340 338 336 334
335 323 333 327 325 327 330 335 344 345 344 342 342 342 342 345 344 343 347 344 339 344 342 342 342 342 341 340 338 338 337 335 336 336 335 338 340 341 339 340 341 341 339
326 331 329 327 330 343 346 345 343 343 343 343 344 345 345 346 345 346 346 345 345 343 344 344 343 341 341 342 340 340 339 337 337 338 338 338 339 339 340 341 342 341 342
341 341 329 334 345 344 344 343 339 342 343 342 342 345 345 346 345 346 345 348 346 344 345 345 346 345 344 344 343 343 342 342 340 339 337 340 341 341 338 339 339 338 338
331 344 329 341 346 346 346 345 345 344 347 344 341 344 345 344 345 345 344 344 345 345 344 344 344 344 343 345 345 344 343 343 343 343 340 340 339 340 340 340 340 340 339
342 338 338 342 344 346 346 346 344 346 346 342 344 343 345 344 345 347 348 348 345 346 345 344 343 346 346 345 342 342 343 344 344 344 344 343 341 341 340 339 338 335 333
343 340 343 343 343 344 347 346 346 343 344 346 342 345 346 347 346 349 347 347 349 347 345 347 347 348 347 345 343 342 344 345 344 345 344 343 341 341 338 336 334 330 328
341 341 340 342 343 346 346 346 346 347 345 340 341 343 348 347 348 350 348 351 350 351 343 346 348 348 347 344 346 343 342 345 345 344 345 344 343 341 338 334 330 328 329
343 340 340 342 342 343 345 347 346 348 349 344 341 343 348 347 348 349 349 350 352 350 346 349 348 342 340 342 345 343 345 346 345 345 345 345 343 341 335 332 329 328 327
348 343 342 342 342 342 346 346 347 348 348 349 346 339 346 349 347 349 347 347 352 348 346 345 346 340 338 340 344 344 345 346 346 346 345 344 341 336 332 328 326 326 329
346 347 343 344 343 341 345 348 346 347 349 349 347 343 343 349 349 351 351 350 346 348 345 340 344 339 337 341 342 340 345 346 343 344 346 341 335 333 329 327 325 325 326
346 348 345 344 339 339 344 348 347 347 349 347 348 346 341 338 341 343 347 345 348 348 345 339 340 334 336 337 342 344 346 345 342 346 341 334 333 330 327 326 325 325 324
346 347 344 334 335 339 343 344 347 347 346 346 347 347 341 337 338 338 340 339 340 349 345 341 333 330 329 333 334 333 332 341 343 337 334 331 330 327 326 326 326 326 325
346 345 344 336 338 339 342 343 345 346 346 347 347 347 342 342 340 343 347 343 342 347 348 343 333 323 321 321 325 328 327 327 337 327 326 326 326 327 326 326 327 326 325
346 345 345 343 341 341 343 344 343 344 346 346 347 347 343 345 347 346 350 351 349 346 348 343 341 324 316 315 319 321 321 325 328 329 325 324 323 325 326 327 326 326 324
347 346 345 346 341 344 338 341 342 344 346 347 348 347 344 345 346 349 350 351 352 349 348 342 342 327 315 313 315 316 316 317 318 318 318 316 320 324 326 326 325 324 324
347 346 345 346 344 344 339 339 343 345 346 349 348 343 343 345 347 349 350 351 352 350 346 344 342 338 321 313 312 313 314 315 315 315 316 317 325 326 326 325 324 324 322

GFSSE_850_thetae_210.txt.gz
Theta_e
338 341 342 341 338 337 337 336 337 337 336 338 336 338 339 340 340 340 341 339 338 339 341 338 332 332 335 336 336 336 336 338 338 340 339 333 339 333 334 332 330 330 332
338 339 342 342 343 335 335 337 342 338 338 338 340 339 339 337 339 340 337 337 339 339 335 331 331 330 333 333 334 335 336 337 337 339 337 332 335 338 341 337 334 333 331
343 343 343 343 341 334 336 335 334 331 335 337 337 340 337 336 338 338 340 335 334 332 331 335 334 332 333 329 332 335 337 337 336 333 333 332 336 340 342 344 339 338 335
342 342 342 341 337 332 334 336 329 336 335 329 331 337 338 329 328 332 331 333 339 337 333 334 334 334 333 333 329 331 337 339 342 339 337 337 336 337 340 342 341 336 339
340 340 342 337 332 336 339 334 335 332 327 331 329 326 327 325 327 329 332 338 335 336 338 338 337 335 336 339 340 340 338 340 340 337 336 337 334 331 332 338 338 336 336
333 331 328 327 330 334 331 333 328 329 333 331 330 330 331 332 329 328 333 335 335 334 336 339 338 338 341 340 341 341 340 341 335 333 337 336 336 337 327 333 331 335 332
330 330 325 327 335 333 335 330 328 335 333 331 331 330 330 330 331 333 335 336 336 337 338 337 336 336 336 339 339 337 341 341 340 337 335 332 337 333 326 328 333 331 327
333 334 324 329 336 329 326 326 333 331 329 328 329 334 337 339 339 337 334 333 331 331 331 331 332 334 338 339 339 336 338 340 338 336 335 334 339 334 327 327 341 336 328
337 329 324 328 328 324 324 328 329 330 334 340 344 344 344 345 343 342 342 342 341 342 341 340 337 335 337 339 337 337 338 337 335 336 335 336 340 337 335 333 339 335 327
335 326 328 326 333 328 327 328 337 344 344 339 343 346 342 340 343 342 344 343 342 343 344 343 341 339 340 339 337 336 337 337 334 334 338 338 340 340 339 339 338 336 335
333 327 326 331 331 327 327 338 343 343 341 342 342 343 344 345 343 345 344 338 342 342 343 342 341 340 340 338 339 338 336 336 336 335 335 336 340 340 339 341 342 342 341
325 331 326 325 327 332 341 346 346 343 343 344 345 345 344 344 345 345 344 345 343 343 344 344 342 341 342 341 340 339 337 336 336 336 337 338 339 339 340 340 340 339 339
324 329 326 328 342 344 343 341 342 343 341 343 345 345 344 345 345 346 346 345 343 344 343 344 344 340 343 343 342 341 341 339 338 338 339 340 340 339 339 339 339 339 339
333 327 331 344 344 344 344 344 344 346 343 342 344 344 344 344 344 344 345 344 344 344 344 343 344 343 344 343 343 342 343 342 342 340 339 339 339 339 339 339 337 331 329
340 328 344 345 344 346 346 345 346 344 343 344 344 344 343 346 347 347 347 345 346 344 345 345 344 345 343 343 341 341 343 343 343 343 343 341 340 340 336 334 332 330 326
340 330 342 345 345 346 346 346 344 343 345 343 342 345 345 345 348 347 346 349 346 346 344 346 347 347 346 344 343 343 343 344 344 343 343 341 339 339 337 334 332 328 327
336 337 342 342 343 346 345 346 346 343 342 342 344 347 346 346 349 348 348 349 350 345 343 345 348 345 347 345 344 343 341 344 344 344 343 342 341 340 337 333 329 325 326
337 341 341 341 344 346 345 345 347 348 342 344 344 346 347 348 349 349 349 349 350 344 343 348 347 344 339 343 344 343 344 345 344 345 345 344 343 341 335 331 326 325 327
339 339 340 341 343 346 345 344 346 347 348 345 342 347 348 348 347 347 349 348 348 346 342 344 345 336 337 338 344 343 344 345 345 345 345 344 343 337 332 327 325 325 326
343 341 342 343 341 342 346 346 345 347 348 347 342 343 347 348 348 349 348 345 347 346 338 338 341 335 339 340 343 341 343 345 345 343 345 345 341 334 331 327 325 326 325
346 346 344 342 343 342 345 344 345 347 348 345 347 345 341 339 339 341 345 343 346 346 340 335 334 334 338 343 344 344 345 345 343 341 345 341 334 333 329 326 325 326 325
344 346 346 344 343 342 343 344 344 347 347 346 347 346 342 340 341 341 342 339 339 347 344 332 326 330 335 336 338 340 338 340 340 342 341 335 333 330 329 326 325 326 325
343 344 345 345 344 339 342 344 345 346 345 346 345 347 342 342 342 347 349 348 345 345 346 342 333 319 324 328 333 334 331 331 337 334 333 328 327 326 327 326 326 326 326
345 345 345 345 339 333 339 343 344 346 344 344 345 347 343 345 347 346 349 350 350 347 347 343 339 323 315 316 319 323 323 322 331 328 327 326 324 322 325 326 326 326 325
345 346 345 344 335 336 339 342 342 344 343 344 345 347 345 345 345 347 349 350 351 350 344 341 341 334 316 313 315 316 316 318 321 321 319 320 317 319 323 326 326 325 324
345 346 346 344 342 338 338 341 342 343 343 344 345 347 344 344 345 347 350 350 351 351 348 348 342 341 325 313 313 313 313 314 314 313 314 315 317 322 325 326 326 324 324

GFSSE_850_thetae_216.txt.gz
Theta_e
349 345 338 342 344 344 342 347 336 341 338 340 335 335 335 336 338 340 339 338 339 341 341 335 337 335 336 336 336 336 338 340 339 337 332 330 331 331 331 342 344 336 330
348 348 341 343 344 340 342 343 341 340 342 340 339 339 338 339 338 338 338 337 340 339 331 332 333 334 335 336 337 337 338 338 340 338 333 334 336 335 334 334 337 332 330
349 348 344 341 342 343 343 341 339 340 339 340 340 339 339 338 339 340 340 338 335 332 335 334 335 334 333 334 336 337 335 338 338 336 345 347 346 338 338 337 337 334 332
349 353 348 340 340 342 337 331 338 336 337 338 337 334 335 338 341 332 337 339 335 333 335 336 336 337 339 338 336 338 341 338 335 336 347 347 347 339 342 341 336 338 336
350 350 343 335 332 343 330 337 342 341 338 337 342 341 327 329 330 335 338 337 337 337 337 337 337 339 340 341 341 339 341 341 338 344 345 345 345 338 339 340 337 336 335
349 348 340 341 334 344 344 337 328 331 337 337 328 329 327 330 333 336 335 334 334 336 339 340 339 337 338 339 340 341 340 337 340 339 343 338 348 333 336 336 334 336 332
347 350 340 330 336 338 341 338 332 332 340 332 332 333 334 334 332 332 333 336 336 336 335 334 333 334 339 338 338 338 340 336 344 339 338 345 340 327 333 330 336 337 336
343 344 343 337 340 331 328 333 335 332 331 331 333 334 335 333 332 334 332 332 334 335 336 335 338 339 340 338 336 339 341 339 336 338 338 343 338 328 330 335 339 336 328
341 343 347 349 338 329 332 333 330 330 335 339 342 342 343 343 342 342 341 340 342 343 341 340 341 341 339 336 338 338 338 339 341 343 341 343 337 334 333 337 334 329 328
342 343 349 346 342 341 335 330 334 341 344 345 344 343 341 343 344 343 338 342 341 342 343 341 340 340 338 337 337 337 334 339 342 342 342 340 340 340 340 340 340 338 337
342 343 344 343 346 346 346 343 344 341 341 343 343 342 347 351 350 343 341 343 343 342 341 342 342 341 339 337 336 335 340 342 343 342 342 340 340 340 340 341 340 340 339
341 342 341 343 345 346 348 349 348 348 350 348 346 344 350 349 345 349 345 343 343 343 343 342 342 341 349 347 339 343 342 338 341 341 338 339 340 339 339 339 336 331 331
338 341 342 342 343 347 350 350 349 351 345 349 344 348 347 351 349 350 350 349 351 347 349 349 350 349 348 347 349 348 347 344 343 343 340 340 339 339 339 333 330 327 325
338 338 339 341 347 351 349 349 349 350 351 351 348 345 345 349 349 352 351 351 350 351 351 351 349 351 351 347 350 351 348 347 346 345 339 340 340 338 334 332 328 324 323
338 337 342 347 347 346 346 349 350 350 350 350 350 345 352 351 350 353 354 351 351 352 351 350 351 348 351 350 349 350 349 348 348 346 342 339 336 334 334 331 325 323 324
337 337 344 347 343 347 346 344 350 351 349 349 350 347 347 351 349 354 353 352 351 351 353 353 352 351 350 350 350 350 350 347 348 346 345 340 339 337 334 328 325 323 322
335 340 346 349 350 345 343 345 350 350 350 350 351 345 347 352 346 355 353 351 350 351 347 346 349 347 347 348 351 350 348 348 348 348 345 348 345 340 334 331 326 323 322
337 345 347 347 349 348 345 348 350 351 350 352 352 353 347 349 351 355 352 352 351 347 349 349 347 341 344 347 350 350 349 347 350 350 347 346 345 345 341 330 325 324 324
340 347 348 348 350 351 346 350 351 344 351 351 352 352 349 354 352 355 352 354 352 344 344 342 342 346 342 347 349 350 351 351 349 348 350 349 347 341 340 340 327 329 326
342 346 348 349 351 350 351 348 352 351 351 352 352 352 354 353 351 353 353 354 353 348 343 334 335 342 346 347 346 349 350 351 350 349 348 345 345 343 339 338 337 339 335
341 342 347 348 348 350 351 350 351 350 351 350 352 351 344 346 349 351 351 353 354 351 339 345 336 333 343 345 347 346 347 348 347 346 345 344 345 342 340 338 334 333 337
341 343 348 349 345 349 350 350 351 350 350 351 351 348 345 346 346 355 355 354 347 353 346 339 327 337 335 333 342 342 341 343 340 338 340 340 341 339 338 337 337 336 335
342 345 348 349 344 346 352 352 351 353 351 350 351 352 347 343 348 355 351 351 349 352 351 344 323 321 332 322 322 335 336 334 331 336 329 331 324 330 331 333 334 335 337
346 345 348 350 346 343 345 352 350 348 347 347 350 351 349 346 347 353 354 354 349 353 343 344 335 320 325 330 328 318 318 321 329 330 333 330 325 325 325 327 330 334 336
347 346 349 350 347 348 344 349 351 349 349 349 350 350 349 344 345 351 351 350 350 355 345 339 340 329 320 328 330 328 319 327 321 326 324 325 326 330 329 329 330 331 333
346 346 348 351 346 346 345 338 346 350 351 349 349 351 350 349 351 347 348 349 351 351 352 347 340 342 335 317 315 317 326 326 326 325 325 325 326 329 328 329 329 330 330

GFSSE_850_thetae_219.txt.gz
Theta_e
351 346 335 341 344 344 345 340 341 337 337 334 335 334 335 336 338 339 338 339 341 340 335 335 335 336 336 335 336 337 340 338 336 331 330 330 331 333 342 343 341 338 331
350 347 342 344 342 340 343 342 341 342 340 340 339 339 338 342 340 341 339 342 338 335 332 333 333 335 336 336 337 337 338 339 339 334 332 333 334 333 339 347 337 330 328
349 347 345 344 343 342 342 339 341 340 339 339 339 339 338 339 340 342 340 336 333 336 334 334 333 332 334 336 337 335 338 338 336 343 348 349 344 340 338 337 335 332 332
349 350 348 342 343 341 338 336 338 338 339 339 334 333 336 340 334 339 340 339 334 335 335 335 338 340 338 335 338 340 336 336 338 347 348 348 347 341 342 337 337 336 336
348 347 343 336 343 334 331 343 343 339 338 340 337 326 328 331 333 341 337 337 337 337 337 340 341 340 340 341 338 340 341 337 342 345 346 348 348 334 341 339 339 338 343
349 350 337 331 343 343 343 336 331 335 337 327 326 327 330 332 337 335 334 334 335 339 339 338 337 337 339 339 341 339 340 339 343 346 343 343 349 330 334 336 336 336 333
345 348 345 335 344 343 340 330 332 339 331 331 332 333 333 332 331 332 335 336 334 333 333 333 335 338 339 338 338 341 338 337 347 346 346 347 333 332 333 334 337 337 337
345 345 338 334 336 334 333 334 333 332 331 330 332 334 334 332 332 334 335 338 340 341 338 335 338 339 338 337 338 340 337 341 343 339 343 343 331 327 329 337 339 328 329
342 345 347 346 336 329 333 331 330 329 336 341 342 342 342 341 342 342 341 342 343 341 341 341 339 338 337 338 339 341 340 339 344 344 344 342 335 335 335 336 332 332 330
341 345 346 346 344 344 333 328 333 342 344 345 343 341 343 345 342 340 346 342 342 342 341 342 340 338 337 338 337 335 338 343 345 344 345 340 340 340 340 341 341 340 340
342 345 345 344 345 345 343 343 341 342 345 345 343 344 349 349 349 349 343 343 341 341 342 342 342 340 336 334 336 342 344 345 345 345 343 340 340 340 340 339 338 337 338
341 343 342 343 345 349 350 349 351 352 350 352 349 353 351 349 348 348 345 344 343 342 342 342 344 348 348 343 345 344 345 344 343 343 339 339 339 339 338 333 328 326 325
341 341 341 344 347 349 348 349 350 349 351 350 353 353 352 352 354 351 352 352 348 351 352 345 350 349 350 348 347 345 345 343 344 345 340 339 339 339 334 330 326 323 322
340 341 343 343 347 350 347 348 350 349 351 350 350 347 354 348 351 350 350 348 351 349 348 350 349 351 348 350 349 348 347 345 346 342 339 339 338 335 332 328 325 323 322
339 340 343 346 352 350 350 350 348 348 347 348 349 351 350 349 352 351 347 347 350 351 347 349 349 350 349 348 347 349 346 347 347 346 336 336 335 334 333 327 325 323 320
338 340 347 351 351 352 352 351 349 350 350 348 350 353 354 351 351 350 351 345 346 352 351 353 351 352 351 349 348 347 347 346 346 347 345 341 340 337 334 329 325 323 322
338 341 348 350 352 352 352 350 352 350 348 349 351 354 355 352 352 349 346 347 347 349 346 349 349 347 347 348 348 346 343 345 344 342 349 347 344 341 338 334 327 325 324
337 343 349 350 352 351 352 351 351 350 349 351 351 353 355 351 354 355 348 349 347 347 347 347 346 343 346 347 347 348 344 345 345 344 345 348 348 346 343 340 332 328 328
337 346 350 351 351 351 352 353 352 352 350 350 350 350 354 353 355 352 352 351 347 342 343 342 347 345 348 346 347 347 347 347 350 348 346 345 343 344 344 342 337 336 336
340 347 350 351 351 353 352 353 350 352 350 350 350 354 358 353 352 357 352 353 350 346 341 345 349 348 347 348 345 347 347 347 346 346 347 348 346 342 340 341 340 341 337
341 347 350 352 354 352 352 350 350 349 350 350 353 355 349 352 353 354 353 356 354 347 339 347 340 345 347 349 346 346 347 347 346 343 343 342 346 343 341 339 337 340 339
342 345 350 352 355 353 351 350 350 349 349 349 352 352 351 353 357 355 357 354 356 356 354 330 343 338 337 345 344 343 344 346 341 336 337 337 339 336 337 340 338 337 336
342 342 346 350 354 354 350 352 355 354 354 353 353 352 352 354 356 356 355 356 353 354 353 342 327 339 335 330 327 341 339 334 332 340 335 332 320 331 332 332 334 336 338
343 342 346 350 353 354 353 350 352 352 350 349 350 352 351 353 356 355 357 357 351 355 354 347 333 326 336 334 336 329 321 320 334 333 337 334 331 331 330 330 331 334 337
345 342 347 351 353 352 352 353 351 351 349 350 350 352 354 348 355 355 357 357 358 358 345 339 340 325 327 333 333 333 329 331 330 330 329 329 329 332 331 331 331 331 334
348 344 346 351 352 352 351 351 353 351 351 350 351 353 351 352 354 352 357 358 357 359 350 346 340 341 330 318 326 327 330 329 330 329 328 328 329 330 332 331 331 330 330

GFSSE_850_thetae_222.txt.gz
Theta_e
349 336 336 343 343 344 338 339 337 337 337 340 336 334 335 338 338 338 339 341 339 333 334 334 335 335 335 335 336 339 337 336 332 331 331 332 338 337 339 344 345 330 335
349 337 343 342 340 343 341 341 341 340 338 339 339 340 340 339 341 341 342 334 338 333 333 334 335 336 336 336 336 337 339 338 333 332 335 332 339 344 343 341 334 328 328
350 342 343 342 341 342 338 340 338 337 337 337 338 338 339 340 342 340 338 337 337 334 334 333 332 335 336 335 336 337 338 335 338 346 346 342 337 337 338 334 332 332 326
348 348 342 343 342 339 335 338 337 338 338 337 335 339 342 336 339 340 340 334 337 336 336 338 339 336 334 337 337 336 338 342 345 347 346 348 344 340 337 336 336 336 332
348 347 339 341 335 331 342 340 336 339 340 340 327 331 332 335 341 338 336 337 337 337 340 341 341 340 341 336 340 339 335 344 344 346 340 342 342 340 340 344 336 336 338
350 348 332 341 334 338 339 333 332 335 329 326 328 329 333 337 334 333 334 336 338 338 335 334 335 338 339 340 338 340 337 344 347 346 346 346 340 331 335 336 336 333 331
351 342 330 343 342 338 329 330 335 329 331 333 333 330 331 332 332 335 335 333 332 332 334 336 336 338 339 337 339 339 338 340 346 345 339 338 328 332 332 334 335 331 339
348 346 334 341 338 338 332 332 332 330 330 331 333 332 332 332 333 334 337 338 338 335 336 340 340 339 337 338 338 337 338 343 340 344 342 334 329 327 331 337 332 326 328
346 345 340 333 328 331 331 329 329 335 340 341 341 341 341 342 341 340 342 342 339 338 340 338 337 338 336 338 339 336 336 341 346 345 345 337 337 335 335 335 336 336 335
345 348 349 334 333 332 328 330 340 343 344 342 341 345 342 338 344 346 342 342 341 340 338 335 335 337 338 340 340 339 340 345 344 345 346 340 339 341 341 341 340 340 340
345 347 346 346 344 342 336 341 343 344 344 342 346 348 348 350 350 343 342 340 341 341 339 339 334 335 336 337 340 345 345 345 345 345 341 340 339 339 338 336 332 330 333
346 345 344 345 346 347 349 347 350 349 348 350 346 351 348 352 350 341 340 341 342 342 342 348 345 344 344 344 343 343 342 344 343 341 338 337 338 338 331 328 325 323 322
343 343 343 346 348 349 349 348 350 350 351 345 353 352 349 351 347 351 351 345 342 346 347 347 350 350 348 346 344 344 344 343 345 330 338 339 339 334 330 326 324 323 320
342 342 345 347 349 350 347 349 350 349 352 349 350 345 351 349 350 350 349 350 347 342 340 348 345 349 351 349 350 346 345 345 345 337 331 330 332 332 330 326 325 321 319
342 343 345 347 350 352 349 344 350 351 348 349 331 348 350 343 350 350 346 348 348 349 349 350 347 345 346 349 346 348 348 347 346 341 337 337 338 334 333 332 327 324 322
342 344 345 352 348 350 350 346 350 347 349 351 351 352 350 349 350 349 351 350 346 353 353 349 350 349 348 348 349 347 346 344 348 347 342 342 341 338 337 334 332 325 324
340 345 350 351 350 352 345 349 351 351 350 350 345 349 346 348 355 349 347 346 348 347 345 344 345 347 349 347 341 345 347 345 343 347 347 346 345 344 339 339 334 331 331
339 347 350 350 352 349 349 352 351 348 350 352 351 350 350 350 354 353 347 345 346 347 347 347 344 344 348 347 348 345 345 344 344 347 345 345 345 342 344 341 338 336 335
339 347 350 351 353 351 343 353 351 350 351 351 351 349 349 353 356 352 350 349 342 342 343 347 346 346 347 345 344 347 348 348 348 346 346 347 343 345 343 343 340 337 338
338 347 351 352 351 352 349 352 346 352 350 350 352 346 353 347 355 352 349 352 348 345 336 348 348 348 348 348 347 348 346 346 347 345 347 348 345 343 342 341 339 338 340
339 348 352 351 351 353 351 353 346 352 349 352 355 346 351 347 354 355 353 355 347 341 331 341 346 347 347 346 346 345 343 343 344 343 343 342 344 343 341 341 339 340 339
341 348 351 353 352 354 347 352 350 350 349 351 353 346 351 353 350 352 355 354 356 355 325 340 341 338 338 348 346 347 347 346 340 337 331 335 336 331 335 341 339 338 338
342 346 350 352 354 352 350 352 352 352 351 351 353 346 352 358 354 351 351 353 354 356 338 332 339 340 334 326 341 340 340 338 338 340 334 331 328 325 331 330 333 332 333
342 343 349 350 352 349 351 351 354 353 354 352 350 354 350 352 357 354 354 353 355 350 350 336 329 336 339 334 336 322 322 321 332 337 337 333 330 331 330 324 331 330 332
343 343 348 349 350 346 350 351 352 353 351 350 352 353 350 352 356 357 359 356 357 352 340 339 327 327 334 334 334 333 331 332 331 328 332 331 331 331 332 330 329 332 334
346 344 344 346 351 348 349 351 352 353 352 350 354 353 353 347 352 356 354 358 357 357 349 340 340 336 322 320 321 323 327 331 331 329 330 329 330 330 331 330 329 329 331

GFSSE_850_thetae_225.txt.gz
Theta_e
340 333 340 342 341 341 338 335 335 335 335 333 331 334 336 334 335 337 338 337 333 334 334 335 335 335 335 337 337 334 331 332 336 334 336 338 341 343 345 340 335 333 328
336 339 340 341 342 339 341 339 338 341 340 339 338 338 337 338 340 340 332 331 332 333 334 336 336 335 335 336 339 338 333 330 332 332 339 343 344 343 341 334 327 336 332
337 341 336 341 339 337 340 337 336 335 337 339 338 338 339 340 338 332 336 332 332 331 330 335 336 336 336 337 337 339 335 335 340 339 337 338 341 338 333 332 331 326 326
338 342 340 340 336 338 336 337 338 338 340 339 338 340 339 339 340 333 334 332 332 336 338 335 331 334 337 335 337 337 344 345 345 344 341 341 340 337 337 336 335 332 331
336 339 339 337 330 337 333 337 335 336 329 328 336 333 336 338 335 334 334 333 334 339 341 340 340 338 336 339 336 343 346 346 344 338 337 341 337 340 343 334 331 331 329
345 338 338 328 335 339 337 329 334 333 325 327 329 334 336 333 333 334 336 338 338 336 335 335 338 339 339 339 336 342 346 346 344 341 339 336 333 337 338 332 334 330 331
343 330 339 337 337 330 328 334 328 328 329 328 331 333 332 332 334 336 335 333 333 333 336 337 336 338 338 338 338 338 344 345 342 338 336 328 330 330 334 335 329 335 335
343 329 341 340 334 330 330 332 329 329 330 330 331 331 331 331 332 335 337 337 335 337 339 339 339 338 338 338 337 337 339 341 342 340 335 329 328 332 337 333 327 327 327
334 330 336 332 333 331 330 329 335 339 341 341 341 341 341 341 341 342 341 338 339 339 339 337 337 337 337 338 336 340 344 344 344 345 341 338 336 335 336 337 337 337 336
344 335 328 329 330 327 329 336 341 343 342 341 343 342 340 344 344 340 339 338 339 338 336 337 338 337 338 338 335 340 345 344 344 345 343 339 340 341 340 337 336 337 338
348 348 334 332 328 338 340 343 343 343 342 347 348 348 349 347 342 341 339 340 341 340 335 335 336 337 339 339 341 342 343 344 344 344 339 339 338 337 332 327 324 323 323
349 346 339 343 344 345 345 348 346 348 340 347 348 349 349 345 341 343 341 341 340 345 342 344 342 342 340 340 341 345 345 345 345 337 337 338 337 332 328 325 323 321 320
346 344 346 346 348 347 349 349 349 344 337 342 345 347 348 348 346 343 337 340 343 345 347 348 346 345 345 345 344 343 343 343 331 328 327 331 334 329 328 326 324 320 318
344 343 346 346 348 350 348 350 350 350 349 344 344 347 339 341 338 345 340 342 344 338 346 347 348 350 349 348 346 346 344 344 341 334 335 334 333 331 330 328 325 323 321
342 344 346 348 349 349 347 350 349 346 345 334 347 344 346 347 347 346 336 345 345 344 344 346 346 346 348 347 347 345 346 345 345 338 341 338 335 335 333 333 329 325 322
343 344 345 349 351 347 349 348 348 350 350 346 345 344 348 348 351 348 348 346 347 346 346 348 345 345 347 347 348 346 346 345 344 345 346 343 343 341 339 339 332 329 329
343 344 344 349 348 348 345 347 347 350 353 349 344 348 346 353 354 349 346 349 346 344 343 347 348 348 348 349 348 345 345 345 343 346 345 345 341 342 342 341 336 335 335
342 344 345 347 346 347 345 350 349 352 349 344 342 345 350 352 349 347 343 345 351 353 348 344 347 347 344 345 346 346 345 343 345 346 345 346 343 342 342 341 338 335 337
341 346 347 351 344 346 348 348 349 353 351 351 347 346 353 352 348 344 346 342 344 344 345 343 344 347 346 347 345 345 345 347 346 343 346 347 345 343 342 341 339 336 339
340 345 350 351 348 345 351 349 349 352 354 351 347 344 350 352 349 352 350 349 345 339 345 344 345 347 347 346 344 348 346 345 347 344 347 347 346 343 341 340 340 337 338
339 341 351 350 350 347 349 347 351 352 353 351 354 346 342 354 354 352 352 349 342 334 344 345 347 347 347 346 346 346 348 344 345 343 342 346 342 342 339 340 341 339 337
339 338 352 351 350 347 347 347 349 349 354 350 351 348 339 352 354 352 352 353 355 329 338 346 345 343 346 346 347 346 345 344 341 340 338 340 339 337 334 340 341 337 333
338 338 352 351 350 346 348 349 351 351 352 351 351 339 344 353 349 355 349 354 354 345 331 336 336 334 341 346 341 343 347 345 339 337 336 333 329 328 329 332 332 332 332
338 339 351 352 352 344 349 351 352 354 351 350 348 342 344 355 355 353 352 353 352 347 325 337 338 335 325 328 325 325 325 328 335 340 337 336 331 331 330 329 324 331 329
340 340 343 350 352 343 349 351 352 353 350 351 350 352 346 351 354 355 352 352 353 341 338 324 334 335 330 330 328 325 325 324 326 327 332 331 330 331 330 331 330 326 327
341 341 342 345 347 344 349 351 350 351 351 349 351 353 349 348 356 356 353 353 355 345 339 337 323 329 328 325 327 324 326 329 330 326 326 327 329 330 331 332 331 331 330

GFSSE_850_thetae_231.txt.gz
Theta_e
339 340 337 339 338 339 338 338 339 341 337 332 329 329 329 329 329 333 337 336 336 336 337 337 337 336 334 336 338 338 334 330 331 335 339 339 333 332 334 328 328 331 336
342 341 337 335 334 333 333 334 332 338 334 333 332 331 334 335 341 340 339 341 341 334 335 336 337 337 333 332 337 337 332 332 334 338 341 344 330 328 329 333 335 336 335
340 341 341 339 340 337 340 340 338 337 339 341 341 337 340 340 334 332 333 336 338 335 335 334 336 337 336 333 331 331 332 334 334 334 334 333 332 332 329 327 328 340 340
338 340 341 338 338 340 338 339 338 340 340 337 337 338 332 341 340 341 331 330 334 335 335 335 334 336 337 336 332 334 333 339 336 336 336 335 335 335 334 330 327 327 329
335 339 334 337 337 340 336 337 338 335 338 339 337 337 339 334 337 334 338 338 338 333 334 335 335 335 337 336 344 344 342 342 342 340 338 338 336 336 334 333 330 332 330
336 336 333 334 336 338 339 329 329 336 339 337 340 338 340 337 336 339 339 340 341 340 338 336 336 336 336 343 343 342 338 338 338 340 338 333 339 342 333 332 329 329 329
336 332 333 335 333 333 335 326 326 329 332 336 334 333 334 335 337 339 338 335 334 335 338 337 337 338 342 343 343 343 338 337 334 329 328 327 331 331 331 329 331 335 327
330 328 335 330 329 327 326 325 328 330 333 333 332 333 334 333 332 332 332 334 335 336 335 338 338 338 343 343 342 340 338 336 333 330 327 326 329 332 331 326 327 326 326
332 333 329 327 329 328 330 330 330 330 331 331 332 335 339 340 340 340 339 338 338 338 338 337 338 337 342 341 338 338 337 342 342 339 336 334 333 334 335 336 336 336 336
336 333 329 329 328 329 336 339 339 339 339 340 341 341 341 340 338 340 339 339 339 338 337 337 337 338 338 337 340 339 341 342 341 339 339 340 339 336 334 331 330 337 339
333 331 328 328 333 338 340 341 340 341 341 341 342 344 343 339 338 339 339 339 339 338 336 337 337 336 337 342 341 340 342 342 341 337 337 336 333 327 324 323 322 321 321
328 328 327 333 338 340 342 342 341 341 343 347 346 342 340 338 339 340 340 337 336 338 336 337 336 337 338 341 339 340 341 341 342 336 336 333 328 326 326 323 321 319 318
329 327 338 343 346 345 343 342 344 345 347 347 343 340 339 339 339 341 344 342 337 338 337 336 334 335 340 340 340 340 338 340 337 334 331 331 329 330 332 325 323 319 318
336 340 343 345 347 346 346 343 344 344 344 345 346 345 341 339 340 339 343 345 343 339 338 337 338 338 340 341 342 343 340 333 334 335 336 337 335 334 336 327 326 325 320
344 344 345 347 348 349 347 340 341 344 344 342 344 342 339 340 340 338 341 344 345 345 343 343 342 342 342 343 343 343 343 338 335 341 341 338 339 337 337 330 332 330 320
344 345 346 346 347 348 347 342 344 344 344 344 346 347 345 340 341 342 342 341 344 347 348 346 346 345 346 345 344 344 344 344 338 343 343 340 339 339 338 335 334 334 331
343 345 346 344 345 346 346 345 340 340 344 343 347 348 347 342 343 345 342 343 343 344 346 345 346 347 346 345 345 344 344 345 344 345 344 343 341 340 339 338 334 336 335
342 345 347 345 346 346 346 347 348 344 346 345 349 346 345 345 345 345 345 345 347 347 345 346 345 346 347 346 345 344 344 344 345 345 344 345 344 342 340 340 338 335 336
342 344 344 346 346 346 347 348 348 348 347 346 350 347 348 345 345 344 346 343 346 345 346 347 346 345 345 346 345 345 345 345 345 345 345 346 346 343 342 340 339 338 336
341 343 344 345 345 346 346 349 349 346 346 346 351 350 347 343 344 344 344 346 345 344 344 345 346 345 346 346 345 345 345 345 346 345 345 345 345 344 342 341 340 339 337
342 343 344 343 344 346 347 348 349 348 348 345 348 350 348 347 350 348 347 342 342 343 344 343 345 344 346 346 346 345 345 346 346 346 344 340 341 340 341 338 337 338 337
342 342 343 338 343 345 348 349 350 351 347 348 346 350 348 349 350 348 349 343 343 340 341 343 346 345 346 345 346 346 346 344 342 343 342 336 334 333 329 330 330 333 333
341 340 342 340 341 346 349 349 350 352 350 349 349 345 349 350 350 350 351 350 332 335 341 343 345 347 346 346 345 344 345 344 344 341 338 336 336 334 331 330 330 329 328
340 339 338 344 340 347 349 346 349 347 349 350 350 347 345 350 350 351 349 347 336 334 338 340 343 345 346 345 345 345 344 344 341 339 331 333 335 332 332 331 330 331 330
339 339 338 343 345 346 347 346 350 346 348 348 350 346 342 349 346 348 343 349 344 329 330 336 339 333 339 344 343 339 339 328 328 331 324 324 328 328 328 328 329 330 331
339 339 339 339 346 344 345 346 349 349 349 350 350 345 345 350 349 351 348 350 347 336 325 330 330 331 328 327 328 327 325 325 326 328 326 323 326 331 331 329 327 330 330

GFSSE_850_thetae_234.txt.gz
Theta_e
340 341 343 340 342 342 340 340 333 329 331 331 329 329 329 330 337 338 339 338 336 336 336 336 336 340 343 337 337 331 333 335 338 339 336 332 333 331 328 328 333 336 333
337 340 342 343 340 337 336 338 340 337 332 329 329 329 330 332 337 338 335 335 335 336 337 336 336 333 344 337 334 330 331 335 338 343 340 330 328 332 335 337 333 342 344
337 338 338 334 334 339 334 333 338 334 334 337 334 335 339 339 334 336 340 341 335 335 335 336 335 333 332 332 333 331 334 337 337 336 333 332 331 329 328 331 343 341 333
339 341 340 341 337 338 339 336 337 338 341 340 340 339 339 338 335 332 335 336 335 336 334 335 336 336 334 331 331 332 335 336 336 336 335 335 335 334 331 329 328 329 340
340 342 338 337 337 337 336 339 341 340 337 336 334 334 339 334 334 335 331 332 335 334 333 333 335 336 336 336 338 334 340 340 339 339 337 336 336 333 332 331 332 335 332
340 334 338 336 340 335 338 340 337 340 339 338 336 338 335 336 338 340 342 343 337 334 335 335 335 336 336 343 343 340 337 337 340 339 335 337 340 338 332 331 329 330 329
337 334 336 334 337 340 331 332 338 339 340 339 339 339 337 337 338 339 339 340 339 337 337 336 336 336 343 343 343 336 335 332 329 334 328 328 331 330 330 327 333 332 326
333 331 341 338 334 334 327 327 330 333 339 340 336 334 336 337 336 335 333 333 334 337 337 337 337 343 342 342 340 339 338 334 332 328 327 328 331 331 327 327 327 327 326
330 335 331 329 329 326 326 329 331 333 332 332 333 333 334 336 336 335 335 337 337 336 338 337 338 341 342 340 339 338 341 342 339 338 336 335 336 336 336 336 336 336 337
330 332 327 329 328 330 330 330 331 331 332 335 338 340 340 339 338 339 338 338 338 338 336 337 337 340 339 340 337 339 341 341 338 338 338 338 334 329 324 322 322 323 330
335 329 328 329 329 334 338 339 339 339 340 340 341 340 339 338 339 339 339 340 338 337 336 337 337 337 338 338 339 340 338 338 336 336 335 332 326 325 324 322 320 319 329
334 329 329 330 336 340 340 340 340 340 342 343 343 340 339 339 340 339 338 338 337 336 336 336 337 336 338 338 338 338 336 336 334 335 332 328 327 332 329 323 321 319 318
329 328 328 334 338 341 342 340 340 344 347 343 341 338 338 339 342 342 338 337 336 336 336 336 335 336 338 338 337 335 336 336 334 331 333 333 331 336 331 325 321 321 317
327 330 336 341 342 342 342 342 344 346 345 339 339 338 339 339 340 344 342 337 337 336 336 334 334 337 339 341 341 340 336 337 337 337 338 337 335 337 331 330 329 321 316
330 338 345 345 346 345 342 344 345 344 345 343 344 343 340 338 338 344 344 340 337 337 335 335 337 338 340 341 342 343 342 337 339 339 339 339 338 338 336 331 333 329 327
339 343 346 347 347 345 341 342 343 344 342 344 342 340 340 341 339 341 343 343 341 341 341 341 341 342 342 343 343 344 344 343 338 341 343 340 340 339 338 335 333 333 331
342 345 345 347 348 346 342 343 344 343 344 346 347 345 341 340 341 341 341 343 345 346 346 346 345 345 345 344 344 343 343 344 343 342 343 344 342 340 339 338 335 335 335
344 345 345 347 346 345 342 342 338 343 343 347 346 347 341 344 344 342 342 342 343 345 345 345 345 346 346 345 343 344 343 344 344 344 344 344 345 342 341 340 338 337 335
344 345 346 344 344 345 346 347 345 344 343 348 345 345 345 345 345 345 345 346 346 345 345 345 344 344 344 343 344 344 344 344 344 345 345 345 345 345 343 341 339 338 336
342 344 344 344 345 345 346 347 348 346 345 348 348 347 345 344 344 345 339 343 346 344 345 345 343 343 343 344 345 344 344 345 345 345 345 344 344 344 343 341 339 338 338
342 342 343 344 345 346 346 348 349 347 345 348 351 346 346 342 343 343 346 344 344 344 344 345 345 345 346 345 346 345 345 345 345 342 344 343 338 338 332 331 332 333 335
341 341 343 343 344 344 345 347 348 346 343 347 351 350 347 345 348 346 345 342 341 341 343 343 345 343 344 345 345 346 345 343 343 343 341 339 337 335 332 330 329 330 329
341 341 343 343 344 344 344 347 348 350 346 349 348 350 347 349 350 348 349 346 334 335 338 342 343 346 346 345 345 345 344 345 344 340 334 334 334 335 333 331 331 330 330
340 341 342 341 338 344 345 347 349 349 349 348 348 346 350 351 351 349 351 348 344 333 337 341 342 344 345 346 345 345 345 344 342 338 330 324 324 327 328 328 328 329 330
340 340 341 340 338 341 344 348 349 349 349 349 350 348 347 350 351 351 350 347 349 334 336 339 340 341 343 340 345 344 343 334 328 325 326 326 328 330 331 331 329 327 329
340 339 341 339 341 337 345 348 346 348 347 348 350 349 345 349 348 348 347 351 350 344 331 329 336 338 331 331 335 331 330 325 327 328 327 329 334 334 334 335 334 334 331

GFSSE_850_thetae_240.txt.gz
Theta_e
348 346 342 339 332 332 335 338 341 342 338 337 337 336 339 338 337 335 340 339 337 339 340 342 337 337 344 345 344 339 342 343 334 333 329 329 329 335 345 346 345 340 332
347 349 343 342 340 334 330 333 335 335 332 330 330 336 338 339 338 336 338 337 337 336 339 341 337 334 343 342 344 345 345 345 331 332 343 344 345 344 337 341 343 343 337
348 348 344 342 340 340 340 334 332 330 329 330 332 333 336 336 338 338 337 338 341 336 334 342 342 342 337 342 342 343 344 335 334 341 345 345 341 336 341 343 338 335 341
347 350 347 339 335 340 340 340 334 332 331 337 337 341 339 340 339 342 335 335 338 342 343 333 336 339 334 335 336 336 336 336 336 347 348 346 343 332 331 331 333 344 345
346 346 342 341 339 341 341 335 339 341 340 340 338 338 333 338 342 337 335 340 343 343 345 341 332 333 333 336 338 340 341 339 342 348 348 350 349 336 331 337 340 332 334
346 351 338 340 339 339 340 340 339 340 338 339 338 340 333 335 333 336 337 342 343 343 345 340 337 344 343 339 336 335 338 340 348 346 349 345 345 330 327 333 329 326 327
345 347 345 340 339 339 340 340 337 339 335 338 334 334 338 340 341 340 341 342 342 338 337 336 340 340 337 335 332 328 328 336 343 344 344 344 336 330 333 331 331 329 327
346 346 346 338 339 339 338 341 340 338 338 339 340 337 340 340 340 341 339 337 339 337 335 337 342 342 337 338 339 337 337 343 344 346 346 345 336 334 333 333 333 333 335
344 345 346 346 337 329 337 338 339 338 339 339 336 337 338 337 335 333 334 337 336 336 337 342 342 339 337 339 340 338 338 343 346 346 346 343 334 328 325 324 321 323 334
347 348 345 346 344 341 339 333 339 339 334 333 334 336 336 335 333 334 336 334 337 337 340 341 341 338 337 338 336 335 341 343 344 345 341 333 329 327 323 321 320 322 321
345 344 343 345 343 346 346 336 332 332 335 340 339 338 339 346 345 341 343 337 336 337 338 341 339 338 338 336 337 339 342 342 342 341 338 334 332 325 323 321 319 316 313
344 343 343 344 344 345 344 346 346 344 345 344 344 345 346 347 347 347 341 337 337 337 337 337 338 339 347 346 346 344 342 343 343 341 335 334 331 327 328 320 315 318 313
343 341 343 346 347 347 348 349 349 349 347 344 341 343 345 345 346 347 344 342 339 338 343 341 338 346 348 346 345 344 344 341 341 340 335 336 335 329 330 327 324 324 319
342 341 343 346 348 349 348 350 350 349 349 347 349 345 346 348 348 351 350 348 347 346 346 346 346 348 347 347 347 344 342 342 342 341 339 338 337 335 330 330 330 329 327
342 342 344 346 346 347 346 350 350 349 348 348 348 344 351 348 347 347 348 347 347 346 346 347 346 347 349 348 347 347 345 345 343 343 344 341 339 338 337 335 333 333 329
341 342 344 344 340 343 348 346 351 351 349 350 350 346 343 346 344 345 346 345 345 344 345 345 347 349 348 347 346 346 347 346 347 347 344 346 343 340 338 337 336 335 332
339 342 344 347 347 343 347 346 351 351 351 350 351 339 340 344 343 345 347 345 344 341 340 341 344 346 348 347 345 345 347 348 347 348 346 345 347 342 341 339 337 336 335
340 345 347 347 349 349 349 350 351 351 351 349 349 347 341 339 342 346 349 349 347 347 348 349 350 349 348 347 346 346 345 346 347 347 346 345 345 345 345 336 337 336 335
344 348 349 349 349 349 343 351 352 348 352 350 351 350 343 341 341 348 348 348 345 350 349 350 350 349 346 347 345 344 347 347 348 345 347 347 346 344 345 346 333 332 332
346 349 351 350 350 350 350 349 350 351 352 351 351 352 345 349 342 347 349 344 349 350 350 350 350 347 348 347 346 344 346 347 348 349 348 347 347 348 347 346 345 344 335
348 349 350 351 349 347 349 350 350 349 350 352 353 351 344 351 344 344 350 346 351 351 351 342 347 343 346 347 349 346 347 346 347 344 343 345 346 347 347 347 345 345 344
348 349 350 350 348 347 351 352 351 349 349 351 352 354 352 348 344 346 348 348 350 351 344 345 344 346 346 348 349 349 345 346 344 339 339 341 342 344 344 345 346 340 336
347 349 350 351 348 350 352 353 347 354 353 351 351 350 348 344 344 346 344 350 344 347 349 345 345 344 346 348 345 348 348 345 344 344 339 336 332 338 340 343 345 339 332
346 347 348 351 348 345 343 352 352 349 349 349 351 351 351 352 354 351 346 343 343 346 347 346 344 345 344 347 348 346 344 346 338 334 336 337 337 337 334 339 337 337 337
344 346 348 347 349 351 345 351 353 351 349 349 350 352 354 353 353 355 349 350 347 344 337 340 341 342 345 344 343 341 342 340 335 335 335 337 338 339 340 339 341 344 344
345 345 347 347 343 345 343 344 349 353 352 350 352 354 352 351 353 352 351 351 346 347 337 334 337 339 342 341 341 336 336 336 336 335 335 337 339 340 341 342 343 343 345

GFSSE_850_thetae_243.txt.gz
Theta_e
349 342 337 332 339 342 342 342 343 340 339 337 339 340 337 337 337 341 338 338 340 342 338 338 343 344 342 338 342 345 336 333 332 336 335 334 342 348 346 345 343 340 338
349 347 338 334 331 333 336 340 341 336 333 333 337 338 339 338 336 340 337 337 339 341 338 335 340 341 343 344 346 346 335 339 347 347 345 347 344 339 340 342 345 341 332
348 347 343 341 338 334 331 334 332 329 329 332 331 337 340 339 338 337 341 337 335 342 341 342 341 341 343 344 345 337 335 345 345 346 345 343 333 333 332 337 338 339 341
346 347 347 341 340 341 339 336 331 330 334 334 338 338 337 339 340 336 338 342 342 335 340 341 336 334 336 336 337 337 337 343 348 350 348 347 343 340 338 335 341 343 343
348 348 339 335 339 340 340 335 338 338 337 339 334 336 341 341 341 341 343 342 342 345 335 332 332 333 337 338 340 340 340 346 348 346 348 347 344 331 334 342 338 334 340
347 347 340 340 340 340 337 340 341 340 339 338 340 332 337 338 340 342 343 342 344 344 336 340 343 340 335 331 332 338 342 346 346 348 347 343 336 329 331 327 326 326 327
349 346 345 339 339 340 340 339 340 339 339 339 336 337 339 338 339 339 337 338 341 341 336 341 336 335 333 331 328 328 341 343 345 346 346 345 336 342 336 335 336 335 332
343 349 347 339 337 339 339 338 338 337 336 336 336 340 340 341 341 339 341 338 336 335 337 341 341 336 339 339 338 339 344 346 346 346 346 339 328 328 329 331 334 330 334
346 346 346 345 340 338 340 340 338 339 338 337 337 339 339 337 337 338 337 338 336 336 342 342 339 337 340 338 337 341 344 345 346 343 342 342 327 324 322 322 323 328 337
345 344 345 346 342 346 344 338 338 338 336 334 334 333 333 332 333 334 336 337 337 342 343 341 338 337 336 333 336 343 344 343 345 341 343 332 325 323 321 319 317 315 315
346 344 344 344 345 346 346 336 334 332 334 337 339 338 342 346 344 342 347 336 337 341 340 337 337 332 334 331 341 342 342 342 342 340 340 328 327 325 319 315 315 312 310
343 343 345 343 345 345 343 345 346 345 342 343 345 346 348 346 345 349 340 336 336 338 337 337 341 347 350 349 347 345 343 342 342 339 335 330 328 328 324 323 321 316 312
343 344 345 345 345 346 346 348 348 348 348 347 344 347 347 347 347 347 339 339 336 336 341 336 348 348 348 345 343 343 342 341 341 340 334 334 330 328 328 327 326 324 319
343 344 346 346 348 348 349 349 348 348 348 348 346 345 348 349 348 347 347 347 346 348 345 346 346 347 346 345 344 343 342 341 342 345 334 336 335 334 333 331 330 328 326
343 344 347 348 350 349 348 349 348 345 348 349 349 350 349 348 349 349 349 347 348 348 347 346 347 350 347 346 344 346 343 344 344 344 347 339 338 337 336 335 333 331 329
343 344 348 349 349 349 352 350 347 350 343 350 348 352 348 348 349 349 350 348 346 346 346 346 349 350 348 345 345 345 346 346 346 347 345 349 343 341 336 335 334 335 334
343 345 347 348 350 350 352 349 352 349 350 349 351 350 351 349 351 348 347 346 345 346 348 347 350 346 345 345 344 345 347 346 346 347 347 346 347 347 345 337 334 334 335
342 345 347 347 350 351 353 351 352 351 348 349 349 351 349 351 350 348 347 345 347 349 348 347 349 346 346 345 346 346 345 345 346 348 346 345 345 348 347 346 335 332 331
343 347 349 349 349 350 352 352 351 350 350 350 350 351 351 351 351 350 347 350 350 350 348 347 346 348 343 346 345 344 346 346 347 346 347 350 349 347 346 347 343 343 342
345 349 350 350 351 351 351 353 351 352 351 350 352 352 353 352 350 351 350 350 352 348 349 349 351 347 350 347 346 344 346 347 348 348 348 348 348 348 349 348 348 348 345
347 350 351 352 352 352 350 351 350 350 351 351 354 354 355 353 353 351 350 351 355 351 356 347 344 343 346 347 351 347 347 345 346 343 342 344 346 347 348 349 350 349 346
348 351 352 352 353 353 349 350 351 350 350 350 353 354 355 354 354 352 353 351 351 353 351 354 350 348 347 349 350 350 346 348 344 338 340 340 340 342 343 345 347 348 348
349 351 352 353 354 351 350 352 352 350 352 352 353 351 351 354 353 353 350 352 350 354 350 348 343 348 352 348 344 351 351 349 345 341 341 339 335 341 341 344 345 345 341
348 350 352 353 354 354 354 351 350 354 349 347 347 348 350 352 353 353 352 352 344 348 350 350 350 350 344 349 349 348 341 345 342 337 339 340 342 341 340 343 342 344 339
347 349 352 354 355 353 353 354 354 349 348 349 349 353 352 352 353 352 353 354 355 346 347 348 350 339 349 347 345 343 345 343 341 339 340 339 340 341 342 343 340 347 348
345 347 349 353 355 355 354 354 353 350 350 347 349 352 351 354 354 354 354 356 356 355 343 338 336 339 341 347 346 343 339 338 339 339 338 339 341 342 342 344 345 346 348

GFSSE_850_thetae_249.txt.gz
Theta_e
333 341 342 342 342 341 340 341 340 340 338 337 339 339 338 337 338 337 338 338 335 337 338 337 333 337 331 330 336 340 338 340 340 344 344 343 341 341 343 332 333 336 334
332 338 340 341 342 342 341 337 336 336 338 338 338 340 338 337 336 335 336 337 341 342 341 340 343 334 332 344 345 345 344 343 341 338 338 336 337 339 342 340 336 331 333
331 332 336 338 339 341 337 330 329 331 338 339 338 338 340 338 338 339 340 337 340 340 343 344 344 335 343 344 346 348 347 347 344 345 341 331 336 342 342 341 339 338 335
334 330 330 334 336 335 331 328 331 331 333 339 340 338 338 341 338 336 341 341 339 336 339 335 334 335 342 347 347 346 347 346 346 346 344 336 338 338 342 342 342 340 339
340 338 337 340 339 333 331 329 334 336 338 338 339 340 338 338 341 341 335 335 332 332 333 334 337 339 341 346 347 346 346 348 347 345 344 329 330 331 329 329 335 334 334
338 338 339 340 338 333 338 335 338 338 337 339 339 340 337 341 341 341 341 334 338 336 340 336 330 327 336 345 346 346 345 344 344 341 333 335 333 333 332 331 329 328 328
335 335 337 337 335 338 339 338 336 336 335 335 337 337 337 340 341 339 342 336 344 337 334 331 330 326 340 344 347 346 346 346 344 336 324 323 324 324 325 322 325 328 332
337 337 338 336 337 338 337 335 335 337 335 334 335 336 337 337 339 340 341 336 338 339 334 335 335 336 342 345 347 347 347 344 339 332 327 325 322 321 320 328 338 339 339
334 336 338 337 336 336 333 333 332 332 335 338 339 338 340 342 342 341 340 336 340 336 335 334 335 341 345 345 345 345 343 342 340 325 321 319 319 317 315 315 315 317 318
333 334 337 337 335 335 334 334 333 336 337 339 338 337 338 337 336 337 334 337 340 337 331 326 334 342 343 344 345 346 344 342 330 320 318 314 314 315 313 311 310 310 309
345 340 335 339 338 336 335 337 336 334 335 335 335 332 335 334 337 336 335 339 337 334 331 341 341 342 342 342 343 346 343 340 327 319 320 319 319 318 316 314 313 311 311
346 344 337 340 337 335 335 332 333 334 335 335 340 342 342 341 341 336 338 335 333 340 347 348 349 348 346 342 344 345 341 340 336 323 323 323 323 322 322 321 321 320 318
346 343 345 345 343 341 338 339 339 340 341 338 344 346 345 344 343 336 336 334 343 346 347 348 346 344 342 342 343 346 341 342 344 342 333 330 327 327 327 326 325 324 323
345 343 346 346 344 344 345 347 344 344 343 346 346 344 345 344 343 335 334 335 341 345 347 343 343 343 344 344 343 341 341 342 344 347 346 345 340 334 329 329 329 328 328
345 345 344 347 347 345 345 341 346 346 347 345 345 346 345 344 340 336 345 337 341 346 346 340 346 347 345 345 344 344 344 345 345 348 346 346 347 346 344 337 330 329 329
345 345 347 347 346 346 343 343 344 347 347 347 346 345 346 345 343 343 348 347 341 345 347 341 347 348 345 344 345 347 346 346 344 343 347 347 347 346 346 345 339 335 334
347 348 348 347 346 347 347 347 347 348 348 344 347 347 345 347 347 347 348 345 344 345 341 342 345 347 346 344 346 347 345 345 346 344 345 345 344 345 347 347 345 343 345
348 349 347 345 347 347 347 349 349 350 349 346 347 346 347 345 349 348 346 345 344 339 347 348 349 348 347 346 346 345 345 346 347 347 346 345 348 346 347 348 346 345 348
344 348 345 344 345 344 349 348 350 351 350 347 339 342 344 346 346 345 342 342 343 346 348 348 349 344 345 346 346 345 346 346 347 347 347 348 349 346 348 348 346 346 349
345 346 347 349 343 346 347 349 351 353 351 349 341 341 346 346 347 345 344 346 349 349 351 353 345 346 347 347 347 346 345 346 348 347 346 346 348 345 348 345 345 345 346
346 346 347 349 346 348 350 349 349 353 354 350 350 337 342 348 349 352 347 347 350 349 351 349 344 346 349 345 349 349 347 345 347 346 343 342 343 343 343 343 344 342 340
345 345 350 349 350 347 348 347 349 351 351 352 351 350 338 348 351 350 347 344 355 351 351 347 344 346 348 344 344 350 352 346 342 341 338 338 336 335 340 341 342 339 339
344 345 351 350 350 345 348 347 349 352 354 352 353 349 350 343 351 350 344 349 351 353 343 340 337 350 352 348 346 345 351 347 345 345 341 340 341 341 342 341 338 339 339
344 346 350 351 351 345 350 351 352 351 353 354 351 351 351 345 352 353 350 352 351 353 350 343 346 347 350 352 350 348 343 335 330 337 341 342 341 343 342 342 342 343 344
344 347 350 350 352 346 349 351 352 350 350 351 351 349 348 348 348 351 352 353 350 351 350 351 341 339 348 348 346 344 342 340 342 342 340 339 339 342 343 343 343 345 346
346 348 348 349 350 347 350 353 350 350 352 351 350 351 347 342 343 342 345 346 347 349 349 350 350 341 341 343 343 345 344 339 339 338 338 338 337 340 342 345 344 347 348

GFSSE_850_thetae_255.txt.gz
Theta_e
338 338 335 338 337 338 337 338 337 338 338 340 341 343 340 339 339 337 339 341 337 334 336 331 331 329 329 331 337 340 341 340 340 342 343 343 338 342 343 340 335 334 340
339 340 339 338 340 340 337 338 338 338 337 338 338 341 340 336 333 336 339 337 332 332 330 330 335 336 336 339 339 337 336 335 334 334 336 338 339 335 338 340 340 335 337
342 342 341 339 341 339 339 337 339 339 337 336 339 340 336 335 334 335 334 336 336 331 335 340 342 343 343 342 341 343 343 343 341 336 333 338 338 338 337 335 338 337 341
341 342 341 341 337 336 337 339 338 339 337 338 337 338 337 336 338 340 341 342 339 335 336 342 344 346 346 346 345 344 342 340 340 337 333 336 340 342 341 339 337 335 334
340 341 342 338 335 333 336 338 338 338 338 337 336 338 338 336 339 341 342 342 339 336 343 345 345 344 345 345 342 341 343 342 337 336 329 330 330 337 341 342 332 335 336
337 338 340 336 329 334 333 336 339 337 339 338 335 336 337 341 341 338 334 334 334 334 336 341 342 344 344 342 342 342 342 340 332 332 332 331 331 330 328 329 328 338 340
331 335 338 331 329 332 334 337 339 339 337 337 337 339 339 335 333 333 332 333 335 336 338 339 341 343 343 342 342 342 341 335 328 326 325 324 323 323 323 327 329 330 330
336 338 338 334 341 335 339 338 337 339 339 337 338 339 340 339 334 340 335 332 330 327 327 334 344 344 344 344 340 341 340 330 322 322 322 320 319 328 336 336 336 336 335
338 338 336 341 339 338 339 334 340 340 341 340 342 342 339 339 335 337 335 334 334 330 337 342 344 346 345 344 341 341 339 322 317 316 315 313 312 312 312 314 316 315 316
337 339 341 342 338 338 340 339 341 342 336 334 337 339 337 338 334 338 334 336 336 337 342 343 345 345 345 344 343 341 331 321 320 318 317 315 313 312 311 311 310 310 309
336 336 341 341 340 339 337 340 341 340 335 337 337 338 337 334 334 338 334 332 336 341 343 343 344 345 345 344 344 341 330 329 327 323 321 321 320 319 319 319 317 314 312
336 336 336 338 338 340 334 341 342 339 338 336 334 334 335 333 336 337 329 330 339 342 343 344 343 342 342 344 344 342 337 340 343 332 328 326 326 326 325 325 324 322 321
335 334 334 334 334 333 335 337 337 338 336 333 334 335 335 334 337 334 334 339 339 342 344 345 346 347 346 347 345 342 340 342 346 345 343 337 332 329 329 329 329 328 327
333 335 335 335 335 335 334 333 333 333 333 334 334 336 336 337 338 334 345 346 346 346 344 343 343 344 345 344 342 343 343 343 346 346 346 344 344 339 334 334 332 330 330
340 334 335 335 333 335 335 335 336 334 334 334 338 337 335 336 334 339 345 343 341 343 341 341 343 344 345 343 343 344 345 344 344 345 346 345 345 345 343 342 343 341 336
344 342 344 343 339 341 338 342 342 341 338 341 341 339 335 334 339 344 344 343 339 341 340 341 344 345 344 344 346 344 345 344 344 344 343 344 345 346 346 345 345 345 343
343 345 345 345 341 343 343 344 345 345 345 340 342 339 335 333 341 342 343 345 341 340 342 345 346 346 345 343 345 344 344 345 345 346 346 347 346 347 347 346 346 346 345
344 343 345 346 341 341 341 343 346 345 345 344 343 339 334 334 334 334 340 342 339 342 343 344 346 346 344 344 346 346 345 345 345 346 347 347 348 346 347 346 346 345 344
344 343 344 345 344 344 343 345 346 346 345 344 343 339 339 346 347 343 340 337 340 340 342 345 348 347 345 345 347 345 344 345 345 346 347 347 347 346 345 346 344 342 341
344 344 345 346 345 346 345 346 347 344 346 346 342 340 340 345 346 347 341 341 341 343 346 349 344 344 346 346 345 347 347 345 345 346 346 347 346 343 342 342 342 339 340
345 344 346 346 345 346 345 347 348 348 346 346 345 343 342 343 346 343 340 340 343 345 346 347 344 344 346 346 345 346 348 346 345 345 345 344 338 338 338 338 338 338 340
344 346 347 345 345 345 344 347 348 349 349 343 343 346 344 344 343 338 339 342 346 345 345 348 347 345 345 346 344 346 349 345 345 341 339 339 339 340 341 341 341 343 345
344 344 345 345 340 343 345 347 349 349 349 349 340 341 342 342 341 339 343 346 344 346 345 346 347 345 342 347 346 345 348 346 344 341 340 339 340 340 341 341 342 342 344
343 343 343 344 340 341 347 349 350 351 349 348 339 340 341 342 343 346 345 347 347 345 346 348 349 346 341 348 349 347 342 339 337 337 339 340 340 338 341 342 341 342 343
343 343 343 344 343 341 346 347 349 350 349 345 349 343 342 346 348 350 347 347 345 348 348 345 341 334 340 348 350 346 344 341 338 339 339 337 337 338 336 339 341 345 345
343 343 343 343 343 343 341 347 348 349 350 350 349 350 347 340 347 349 350 349 342 349 347 349 345 345 342 345 346 346 345 345 342 339 338 337 336 332 329 334 338 345 346

GFSSE_850_thetae_258.txt.gz
Theta_e
336 337 337 337 337 338 338 338 339 340 342 341 342 338 338 339 340 339 342 339 341 343 339 333 332 328 331 336 339 340 340 340 341 344 342 340 344 343 336 337 335 339 335
336 336 337 337 337 337 338 337 337 340 341 343 342 338 339 338 340 341 337 331 337 330 329 330 331 336 341 338 336 337 336 334 333 336 338 338 337 341 342 338 336 335 341
338 337 338 339 339 337 338 338 337 336 339 342 340 339 334 335 340 337 333 332 331 336 340 340 340 340 338 342 344 344 342 341 336 334 338 340 339 337 335 339 339 341 340
340 341 339 340 339 338 337 339 337 337 340 339 337 334 338 335 336 335 338 331 342 345 344 344 345 345 345 344 342 341 340 337 337 331 334 338 342 342 340 337 335 334 336
342 341 341 338 336 338 338 338 338 338 340 338 337 335 338 340 342 341 342 345 339 341 343 344 343 344 342 341 341 339 337 335 331 332 330 331 334 341 343 339 332 334 335
341 341 340 337 331 335 338 338 338 337 337 338 336 335 339 341 341 340 338 335 339 342 342 343 342 341 341 342 340 337 333 328 327 328 329 330 330 329 329 329 331 339 341
340 341 339 331 331 333 337 338 338 339 337 336 336 338 339 337 334 334 333 334 335 336 339 341 343 342 341 341 340 338 334 326 324 326 325 323 323 322 325 328 329 329 330
336 337 335 329 330 332 333 340 337 338 340 346 339 339 334 334 336 333 335 335 334 334 335 342 342 341 340 338 336 333 325 318 318 319 319 317 325 331 335 336 336 335 335
333 337 331 332 332 337 338 339 339 337 337 336 338 340 338 336 340 335 331 329 326 328 338 342 342 342 342 341 337 332 323 318 315 315 313 312 312 312 312 313 314 314 315
338 337 334 340 336 339 338 339 338 339 338 338 339 339 338 335 337 334 334 333 331 339 342 343 343 343 343 343 341 334 325 322 320 319 317 315 314 314 313 312 311 310 309
339 339 340 339 337 337 336 340 341 340 341 339 341 336 337 335 337 334 336 336 339 341 342 343 343 343 343 343 342 336 335 331 326 325 324 323 322 322 322 320 319 317 315
341 341 341 337 335 336 338 339 340 342 340 336 336 337 335 334 337 334 334 337 340 342 343 343 342 342 344 346 344 341 339 342 343 333 328 328 327 327 327 326 325 325 323
337 338 338 339 335 337 337 339 339 335 337 335 336 334 333 334 337 331 331 339 342 342 342 342 344 346 345 344 343 342 341 344 345 345 342 335 330 330 330 329 329 329 328
336 336 335 334 332 334 335 339 338 338 336 335 334 334 333 336 334 332 334 338 340 342 345 345 345 346 345 343 342 343 343 344 345 346 345 344 342 339 340 338 334 331 331
335 334 334 333 333 333 335 335 336 337 333 334 334 335 334 336 334 340 344 345 346 345 344 344 345 346 345 343 345 344 344 343 343 344 345 345 345 345 343 344 342 340 335
334 335 335 334 335 334 333 333 333 333 332 335 335 336 336 336 335 345 344 343 343 343 341 342 344 344 343 344 345 344 345 344 345 344 344 345 345 346 346 345 345 344 342
333 334 336 335 334 335 335 337 339 337 335 333 338 337 336 333 338 344 342 341 340 341 340 342 345 345 343 343 345 345 345 345 345 346 346 346 346 346 346 346 345 345 344
340 341 343 342 340 342 340 342 343 342 338 338 341 339 335 336 343 343 342 343 340 341 342 345 345 345 344 344 344 345 344 345 345 345 346 347 347 347 346 346 346 344 343
342 343 345 345 342 342 343 343 345 345 345 339 341 339 336 336 342 341 341 343 340 342 343 344 347 346 344 345 346 345 346 346 345 345 345 346 347 346 346 346 345 343 342
343 343 343 344 342 342 341 343 345 346 345 344 343 338 334 333 335 334 339 340 339 341 342 347 347 344 345 346 345 346 345 344 345 345 345 345 343 343 342 341 342 341 341
343 343 343 344 343 344 344 344 345 345 345 344 342 340 339 344 345 342 341 340 341 340 346 348 347 343 345 346 345 345 347 345 345 344 342 340 339 339 340 340 341 342 343
342 343 343 345 345 344 344 345 346 345 344 345 343 340 338 344 344 345 341 339 341 344 346 348 346 345 345 345 346 344 348 345 344 341 339 339 339 340 340 341 341 342 345
342 343 344 345 345 343 345 345 347 348 348 346 345 343 338 342 342 343 339 340 343 343 344 346 347 347 345 344 347 346 345 344 343 343 342 341 340 339 340 341 342 342 342
342 343 344 345 345 343 344 344 346 348 348 346 340 342 342 341 341 338 339 341 345 343 345 345 347 347 347 343 347 348 346 341 339 339 338 339 340 340 338 337 338 340 344
342 343 343 344 345 342 343 343 345 346 346 347 342 339 341 340 340 339 341 344 346 345 346 348 349 340 334 341 347 348 345 342 342 340 338 336 335 336 333 329 333 338 345
342 343 343 344 344 342 340 341 344 344 346 344 346 339 339 339 341 342 345 347 345 346 345 346 349 347 345 340 344 345 346 345 343 341 336 333 332 329 329 331 335 344 346

GFSSE_850_thetae_261.txt.gz
Theta_e
337 338 337 339 338 339 339 340 341 340 341 340 337 339 340 339 342 341 342 343 345 344 342 334 329 334 339 340 338 339 342 343 343 341 341 345 340 336 336 335 343 343 340
337 337 337 337 338 337 338 340 341 342 342 342 337 339 340 340 342 338 339 342 332 329 330 334 342 337 337 342 341 340 339 341 340 340 337 337 341 340 340 336 339 341 339
336 337 337 337 337 338 337 338 340 343 343 340 339 339 340 341 338 338 338 331 342 340 342 342 338 342 343 342 340 339 339 336 333 335 340 346 340 335 338 339 339 340 338
336 337 339 339 337 338 337 338 340 343 340 339 335 335 340 337 334 334 334 344 344 344 344 344 345 343 341 340 340 339 336 334 331 332 340 344 344 342 340 335 334 335 334
340 338 340 339 338 337 338 338 340 342 341 336 339 337 336 338 340 338 342 343 342 343 342 344 344 341 341 338 336 333 329 327 330 330 330 330 343 342 342 329 334 334 336
341 339 339 336 337 338 338 337 340 338 338 337 339 339 342 342 343 343 340 341 342 341 341 341 342 340 336 334 333 328 324 324 325 325 325 327 331 328 328 329 338 340 338
341 340 337 332 334 338 338 338 337 339 338 336 336 339 340 342 338 335 336 335 338 340 342 342 340 337 334 334 328 323 318 318 320 321 322 322 322 325 331 330 330 330 329
343 341 332 330 333 336 338 338 338 337 336 337 338 339 337 333 333 338 337 336 336 337 342 340 341 341 338 335 329 322 316 315 314 314 314 320 326 332 335 337 336 332 332
343 339 331 328 332 331 339 338 339 341 343 341 337 335 335 340 340 335 331 328 327 338 340 342 342 342 341 339 334 324 320 319 317 314 313 314 312 312 311 312 311 312 314
337 334 330 330 333 335 337 339 338 341 337 337 339 340 344 344 337 332 332 328 337 340 342 342 343 343 342 341 337 332 326 324 323 322 320 318 318 317 315 314 313 311 310
342 337 333 337 336 338 338 338 340 340 339 337 338 340 341 338 336 335 333 337 340 341 342 342 343 344 344 343 341 340 339 333 327 327 326 325 325 324 323 322 321 320 319
343 337 337 337 338 336 334 338 340 341 341 339 340 342 338 336 335 335 336 340 341 341 342 342 344 345 344 343 343 343 341 343 340 331 329 329 329 329 328 328 327 327 326
340 342 340 337 335 337 340 338 339 340 335 334 335 339 337 336 334 333 338 340 341 342 342 344 344 346 344 343 343 343 344 345 345 344 340 334 333 332 331 330 330 331 331
340 338 340 337 334 334 336 338 337 333 336 336 336 335 333 336 334 331 338 341 342 341 345 344 346 345 344 342 344 343 343 344 344 345 344 343 341 341 340 338 334 332 332
335 335 337 339 335 333 333 338 338 337 334 334 334 334 332 337 333 332 337 340 343 345 344 344 345 344 343 345 344 344 343 343 343 344 344 345 345 344 344 344 342 340 337
334 334 335 334 332 332 334 337 337 337 335 334 335 335 333 336 334 338 342 345 345 343 342 343 344 343 343 344 344 344 345 345 345 345 345 346 346 346 345 345 344 343 342
334 334 334 333 333 334 334 333 333 334 334 333 335 336 335 336 336 344 345 343 342 342 341 341 344 345 343 344 345 345 345 345 345 346 346 346 346 346 346 345 345 344 343
332 333 334 334 334 334 333 333 333 333 332 332 337 338 336 336 337 344 342 342 341 341 340 343 345 346 344 344 345 345 344 345 345 345 346 346 346 346 346 346 345 344 342
332 334 338 337 334 335 336 340 341 341 340 335 338 339 337 334 338 343 342 342 339 341 342 344 346 345 344 345 346 345 345 345 345 345 345 345 345 345 345 344 343 342 341
340 340 343 344 341 341 344 343 344 345 344 342 338 340 338 335 342 342 341 342 340 341 342 344 348 345 346 345 345 345 344 344 344 344 343 341 338 339 339 339 340 341 341
343 343 343 344 343 341 342 343 343 344 345 344 340 340 338 335 340 340 337 339 340 341 342 346 348 345 344 344 345 345 347 345 343 341 339 339 340 340 341 341 342 344 345
342 343 343 343 344 342 342 341 343 345 345 344 343 342 337 334 336 337 337 340 340 340 344 346 348 347 345 343 346 345 350 349 344 343 340 339 339 340 340 341 342 342 342
343 342 343 343 344 344 344 343 344 345 343 344 343 341 336 338 341 344 343 340 340 342 345 345 346 347 348 344 345 348 347 346 341 341 340 341 340 339 339 338 337 339 342
342 343 342 343 344 345 344 344 345 346 346 344 344 341 337 339 344 344 342 339 340 343 343 345 344 347 344 342 344 348 346 344 343 343 340 337 339 337 336 335 331 333 337
342 342 342 342 343 346 344 344 344 346 347 343 342 343 342 338 340 341 341 341 341 343 342 345 346 348 343 339 341 346 347 346 345 344 344 340 331 330 332 331 334 343 346
342 342 342 342 343 344 345 343 344 343 346 345 344 341 340 341 340 340 339 339 342 344 346 345 346 348 346 345 344 343 343 346 347 346 345 343 336 330 328 331 334 341 345

GFSSE_850_thetae_264.txt.gz
Theta_e
345 344 339 339 340 341 341 339 340 340 338 339 340 340 341 342 342 344 345 344 345 340 331 337 343 343 341 340 342 342 342 343 338 343 342 340 335 335 340 344 347 345 337
345 345 338 338 339 340 341 342 340 342 340 338 339 340 343 340 341 342 339 332 330 332 344 338 339 341 342 340 340 339 336 338 339 339 344 341 340 341 336 340 341 340 338
346 345 340 338 338 339 341 342 343 343 341 339 340 340 342 336 339 334 337 336 337 343 338 342 343 340 339 340 338 335 335 333 336 344 347 346 344 339 339 337 339 338 337
346 346 346 338 338 338 341 343 343 344 340 340 340 341 337 337 334 336 344 343 344 344 344 344 340 338 335 334 333 329 329 331 331 344 346 347 346 342 333 335 334 334 336
346 347 342 337 338 338 341 343 341 340 339 336 340 336 340 340 337 342 343 342 342 343 342 340 341 337 334 331 326 326 325 325 331 342 343 344 346 341 330 337 339 337 341
347 347 339 338 337 338 340 343 341 338 338 338 338 341 341 341 343 340 341 341 341 340 341 340 337 335 333 326 320 319 321 327 340 339 341 338 340 326 326 332 340 339 335
348 348 342 337 338 338 341 339 338 338 339 336 341 342 343 343 338 335 339 339 341 343 339 338 339 338 332 327 319 316 317 329 338 340 340 340 331 331 330 330 330 330 330
348 347 343 332 337 338 340 340 338 337 337 338 339 341 338 336 334 336 335 336 340 340 341 342 342 339 335 328 321 318 318 332 333 334 335 337 325 332 335 336 332 334 335
348 346 345 345 339 338 338 339 337 337 338 339 339 336 335 339 339 333 329 330 340 341 342 343 342 341 339 333 327 323 323 330 333 334 331 328 313 312 312 311 311 312 314
346 345 343 346 347 348 345 338 339 342 341 341 338 339 342 340 332 331 328 336 340 341 343 343 344 344 343 341 338 331 332 334 335 334 330 322 320 318 316 315 314 313 312
345 344 345 345 348 350 353 339 340 338 337 340 341 344 348 348 347 348 340 339 340 342 343 344 344 345 346 345 343 342 339 337 335 335 331 328 327 326 325 324 323 322 321
346 345 346 346 348 349 348 347 348 346 349 351 348 350 349 349 347 347 340 338 339 342 343 344 346 348 348 346 348 348 343 341 338 336 331 330 330 330 330 330 329 329 328
346 344 346 346 348 345 348 348 348 348 349 350 345 349 348 349 347 347 346 344 347 345 347 348 349 349 350 348 347 347 348 343 342 342 340 339 337 334 332 331 331 332 332
345 345 346 346 346 346 346 347 348 349 348 347 349 345 346 347 344 347 347 347 346 347 347 350 349 351 351 350 349 348 348 345 343 344 343 343 342 342 341 340 337 334 333
345 346 346 346 346 347 347 347 348 347 347 348 348 339 346 347 346 346 344 347 347 348 349 350 350 350 351 348 347 348 347 346 346 344 346 344 344 344 343 344 343 342 340
344 345 346 347 347 347 346 347 348 348 347 346 345 346 338 347 344 346 344 347 347 349 349 350 345 349 350 348 348 348 349 348 348 348 346 347 345 345 344 344 344 343 343
344 344 346 346 346 346 346 347 347 348 346 344 343 336 337 341 336 348 348 347 348 346 344 349 349 349 349 347 348 348 348 349 348 349 349 348 348 345 346 345 344 343 342
343 344 346 345 345 346 346 346 346 346 345 344 344 346 335 337 338 344 348 347 350 348 347 348 349 350 349 348 348 349 349 349 349 346 348 348 348 348 348 342 343 342 341
342 344 345 345 345 346 346 345 345 345 344 345 345 347 342 342 344 349 348 348 343 347 347 348 350 352 350 349 346 347 348 349 349 348 346 343 343 344 347 346 340 339 340
341 343 345 345 345 345 346 344 347 347 347 346 346 347 347 345 336 343 348 348 345 347 347 351 349 352 351 351 347 347 348 348 348 348 347 346 346 343 347 342 345 350 344
344 344 346 348 346 345 346 347 349 350 349 348 347 348 347 344 344 343 348 348 347 344 348 347 353 352 350 350 348 346 348 347 346 345 344 345 347 346 342 341 341 350 350
347 347 347 348 349 342 349 349 350 350 349 349 348 348 345 341 345 348 348 346 347 346 342 347 347 351 350 351 350 347 346 347 345 346 346 346 346 345 344 346 340 339 341
346 349 348 344 349 344 349 349 350 350 351 350 350 349 346 342 341 344 348 347 350 344 347 347 350 348 350 351 346 351 348 347 347 345 344 345 340 344 343 342 341 339 331
346 347 349 344 344 346 345 350 351 349 349 349 349 349 348 345 343 347 349 351 348 346 349 351 349 348 348 347 350 351 348 349 348 347 346 346 343 340 341 339 340 346 341
346 347 349 348 344 346 346 348 351 350 349 349 349 349 350 348 344 347 351 351 348 349 352 351 350 347 351 349 347 349 352 351 351 350 349 347 347 343 338 336 341 344 351
345 346 348 350 342 343 344 345 350 352 352 349 349 349 349 348 346 347 350 346 343 350 351 350 345 346 348 349 348 348 347 349 349 348 347 347 346 344 340 336 335 339 345

GFSSE_850_thetae_270.txt.gz
Theta_e
342 342 344 342 342 337 335 336 340 340 341 343 342 343 343 344 344 340 333 338 343 344 343 341 341 341 341 340 337 337 338 338 339 335 333 339 343 344 345 346 344 334 335
340 342 342 342 340 337 338 339 339 341 343 341 342 342 341 336 333 331 344 340 342 342 341 340 341 340 339 334 336 339 343 346 346 345 341 336 337 345 345 343 337 333 330
343 340 341 341 341 338 339 340 339 341 342 339 340 335 339 338 342 343 340 341 343 339 337 337 335 340 334 333 333 343 347 346 346 346 346 339 336 337 338 337 334 335 335
347 343 339 341 341 341 341 341 339 341 341 337 338 339 342 342 343 343 344 343 340 337 337 330 327 327 338 327 330 343 344 347 347 347 348 345 336 332 332 333 338 337 335
348 341 338 341 341 342 343 342 339 341 340 336 339 337 343 343 342 342 342 340 335 332 329 326 322 319 319 324 326 336 341 340 341 346 344 345 332 343 344 343 341 342 340
348 339 339 342 344 344 344 343 339 341 338 341 340 341 342 341 340 340 339 336 335 332 331 327 322 317 316 321 331 339 340 342 343 341 341 342 323 328 335 340 335 335 340
348 338 340 342 343 343 343 342 340 341 336 341 342 342 338 340 339 340 338 337 336 336 334 330 326 321 318 323 336 339 340 341 343 341 337 330 333 336 333 331 329 329 332
349 342 340 342 341 339 339 340 339 340 342 343 341 335 334 335 336 339 337 340 341 341 340 338 333 326 327 331 334 335 336 336 336 331 316 317 325 323 319 326 331 331 328
347 343 341 340 339 339 339 339 339 339 341 336 333 335 336 334 334 338 338 341 342 343 341 340 338 335 334 336 336 336 335 332 330 327 321 320 318 317 316 315 315 314 315
346 349 346 341 339 338 338 339 336 338 337 336 341 334 331 328 328 337 340 342 343 341 342 347 344 345 343 339 338 338 337 334 332 330 329 328 327 327 326 326 324 322 319
347 348 344 343 344 342 337 338 337 339 337 344 348 348 352 349 342 335 341 342 343 346 348 349 349 349 348 344 342 339 338 336 332 331 332 332 332 332 332 331 331 331 330
344 347 349 350 350 345 346 339 338 344 343 345 351 350 350 350 345 338 340 343 346 348 350 349 350 350 351 351 346 344 340 340 335 334 333 333 333 333 334 334 334 334 334
343 346 348 348 349 349 344 347 348 351 350 345 348 349 346 345 338 335 339 344 348 348 351 349 350 349 349 350 347 345 344 343 344 337 336 337 336 336 335 335 335 335 336
344 346 349 349 350 350 347 348 346 349 353 347 346 349 346 349 350 345 346 344 348 347 350 350 348 351 346 347 349 347 345 345 346 344 338 337 337 337 337 337 337 336 336
345 348 348 347 348 348 348 349 349 350 349 351 348 346 350 346 348 347 343 347 346 350 350 350 349 351 349 348 349 347 347 347 346 347 347 346 339 338 336 337 337 337 337
345 347 348 348 348 346 349 347 348 348 350 348 350 343 350 349 347 349 344 344 344 351 349 346 347 350 348 349 348 348 349 349 345 350 348 349 347 348 342 339 337 337 336
345 347 348 347 345 347 347 347 348 348 348 347 348 348 348 351 348 346 348 344 347 342 350 349 349 350 349 349 349 349 350 348 350 349 349 349 348 349 347 349 342 338 337
345 346 348 346 346 348 350 344 348 348 348 347 347 346 345 352 346 350 345 345 347 350 347 348 348 351 349 349 346 348 349 349 349 350 349 346 348 348 347 349 347 344 344
345 346 348 347 347 349 347 345 349 349 349 346 345 348 339 349 343 350 347 347 345 348 348 349 355 349 349 349 349 349 347 348 348 351 347 346 349 347 348 351 347 348 352
346 346 348 347 348 347 348 349 348 349 347 346 345 347 349 343 339 348 351 350 342 348 347 350 353 347 350 353 347 349 347 348 348 346 345 345 348 345 351 349 344 348 352
345 347 348 347 348 348 349 349 349 348 345 347 346 347 348 348 341 346 352 348 340 348 348 350 345 355 348 351 349 350 347 348 345 346 344 344 346 346 345 345 347 352 347
344 346 347 348 348 348 348 347 347 346 347 347 347 347 350 348 349 340 348 351 347 345 344 346 348 354 355 353 348 347 347 349 347 347 346 344 346 345 344 346 346 343 344
344 344 347 348 349 347 347 348 347 348 347 348 348 348 348 346 350 347 342 351 350 346 350 345 340 346 351 352 352 344 352 354 351 347 348 346 346 347 346 343 342 341 340
346 344 347 350 351 349 348 349 350 349 346 349 350 349 349 348 347 349 346 346 348 349 348 351 352 355 353 349 351 349 350 349 348 344 343 347 348 349 348 347 344 340 339
347 348 348 349 351 352 346 352 351 350 349 349 346 350 349 349 349 348 349 352 344 348 343 347 353 351 352 351 350 348 351 353 348 353 352 350 349 347 346 345 345 343 338
348 347 350 350 350 350 353 350 354 351 352 351 351 351 350 350 351 348 348 347 347 345 344 351 352 350 352 350 352 354 350 349 348 350 350 349 350 348 344 341 340 342 339

GFSSE_850_thetae_273.txt.gz
Theta_e
343 334 335 332 332 335 338 341 342 344 343 343 343 342 343 341 333 336 341 340 340 340 341 341 341 341 339 339 341 337 336 335 334 334 340 341 341 344 345 341 333 332 333
343 342 340 339 334 336 338 341 342 342 343 343 342 341 336 332 344 341 341 341 340 339 339 338 339 336 336 336 337 344 343 343 342 339 336 341 345 344 342 337 332 330 329
342 343 342 339 335 340 338 341 342 341 341 336 339 340 338 340 341 341 342 339 336 334 336 339 337 332 332 339 344 345 345 345 345 345 340 332 336 337 337 335 334 334 332
340 341 341 340 337 339 339 340 341 339 339 337 340 341 342 342 342 343 340 336 337 333 327 325 332 337 331 342 344 345 345 345 345 345 344 341 331 332 333 337 336 334 334
339 339 341 341 341 340 340 339 341 337 338 337 342 342 342 341 341 340 335 331 328 324 319 317 318 322 326 337 340 339 342 345 344 345 342 328 343 342 342 340 339 338 335
339 339 342 341 342 341 341 339 341 335 338 340 342 342 340 339 338 334 332 331 332 323 320 317 315 320 324 336 340 342 343 343 343 342 342 338 328 337 341 334 333 339 339
338 341 343 343 343 343 341 339 341 336 338 341 340 339 338 339 337 334 331 331 329 327 325 322 318 322 333 339 341 342 342 342 340 336 326 324 326 326 326 326 328 333 329
338 342 343 344 344 343 341 340 338 339 340 341 335 335 335 337 337 336 336 338 334 335 329 331 330 331 334 335 336 338 341 337 324 317 318 318 317 316 319 320 320 322 325
338 342 341 340 341 343 341 340 337 341 336 334 334 335 334 335 337 337 339 336 338 337 340 335 336 336 335 335 334 333 332 329 327 325 325 324 322 321 320 319 318 317 316
338 341 339 339 339 339 339 340 340 335 335 338 331 331 327 334 335 339 339 337 344 347 345 345 339 338 338 337 335 334 335 331 331 330 330 330 329 329 329 329 327 326 324
344 340 339 338 338 339 339 337 336 338 345 340 346 349 344 337 335 338 339 347 348 349 349 349 349 342 340 338 338 336 337 332 331 332 332 332 333 333 333 333 333 333 333
346 340 340 339 338 339 336 337 337 343 348 348 348 350 346 335 337 339 344 348 349 351 351 351 349 350 347 344 339 338 341 341 333 333 333 333 333 333 334 334 335 335 336
346 347 341 341 339 338 337 337 343 344 343 347 349 347 345 336 335 339 342 348 348 350 350 349 350 347 348 346 345 339 343 345 342 336 334 334 334 334 334 334 334 335 335
348 348 346 346 346 343 339 342 347 347 347 343 347 344 346 348 341 344 343 347 348 349 349 350 351 346 347 348 347 343 344 344 346 347 345 336 339 334 334 334 334 335 335
346 348 347 347 349 347 347 349 349 350 350 343 342 343 346 348 349 345 343 347 349 351 346 349 350 348 348 346 348 345 346 347 346 349 348 347 347 344 342 338 335 334 335
345 348 348 348 348 348 349 351 349 350 350 350 347 348 344 346 347 346 343 346 349 349 342 348 350 350 348 346 346 349 348 348 348 343 348 349 348 348 346 348 339 337 336
348 348 348 346 347 345 349 348 347 348 349 348 348 345 349 346 345 343 345 344 346 348 348 348 348 350 350 348 348 348 347 347 348 345 349 346 348 346 346 348 346 343 342
348 348 348 347 345 343 344 346 347 347 347 347 347 346 347 345 342 347 343 345 348 346 348 348 349 350 349 350 347 349 349 349 350 349 349 348 341 343 347 348 349 344 351
347 348 348 347 344 345 343 346 346 347 349 347 344 343 339 341 347 348 345 344 345 347 348 348 354 350 347 349 348 349 348 348 348 348 346 345 347 345 347 347 346 345 352
345 346 348 346 346 342 340 343 348 347 348 347 345 345 345 335 346 346 351 350 344 347 347 347 350 348 349 350 347 349 347 348 348 347 344 345 346 345 346 346 345 347 348
345 346 348 347 346 347 342 343 349 348 347 346 346 345 347 347 343 350 353 350 345 348 350 347 350 346 351 350 347 348 348 347 347 345 345 345 346 346 345 347 348 346 343
345 345 346 347 348 347 346 340 347 348 344 346 345 346 347 348 345 344 352 348 344 345 346 347 346 348 353 353 352 345 347 349 349 346 346 345 343 345 346 344 345 343 341
344 345 346 347 347 348 347 344 344 346 345 344 346 348 346 346 345 338 350 349 348 346 348 348 341 347 353 352 351 344 350 352 349 349 347 346 345 347 348 348 346 344 341
343 343 345 346 347 347 348 345 344 348 347 348 347 347 347 347 347 344 338 349 350 350 348 348 349 345 350 351 353 350 350 351 348 344 345 343 346 350 348 346 344 345 343
344 344 343 343 345 347 347 346 347 346 348 346 348 351 348 348 348 343 337 341 350 348 345 348 353 350 352 349 347 349 352 353 349 349 350 349 351 349 348 346 342 340 343
347 345 344 345 346 345 348 345 347 348 349 347 346 350 350 351 349 348 341 335 343 347 343 346 347 354 352 347 343 349 352 350 348 348 351 349 348 348 347 344 341 341 342